Weather in Bolshaya Khalan

Russia / Belgorod Oblast     50°55′24″N   37°25′31″E
temp.,
°C
wind,
m/s
gust,
m/s
humid.,
%
clouds,
%
prec.,
mm/h
press.,
hPa
HPBL,
m
3 august, tue
tue300:00+20w227876 0.4 101018
03:00+20sw118389 4.3 101016
06:00+20sw359136 0.3 1010141
09:00+24w4569100 0.3 1011643
12:00+25w355960 0.0 10111138
15:00+28w564288 0.0 10111513
18:00+26nw5544100 0.0 10111253
21:00+20n49640 0.0 1014223
4 august, wed
wed400:00+18n337329 0.0 101441
03:00+19n256797 0.0 1015119
06:00+19nne1266100 0.0 101667
09:00+21w2259100 0.0 1017289
12:00+25wnw353849 0.0 10172405
15:00+26w363111 0.0 10162764
18:00+25nw66345 0.0 10171441
21:00+18n335062 0.0 101832
5 august, thu
thu500:00+16ne335757 0.0 101841
03:00+15ene2264100 0.0 101823
06:00+16ene2262100 0.0 101924
09:00+23se23435 0.0 1018422
12:00+27sse3333100 0.0 10171849
15:00+28s3331100 0.0 10162332
18:00+26se4538100 0.0 1015553
21:00+22se494596 0.0 1014189
6 august, fri
fri600:00+19se395074 0.0 1014137
03:00+18se41053100 0.0 1013161
06:00+18sse31154100 0.0 1013214
09:00+25sse6937100 0.0 1012524
12:00+30sse783196 0.0 10111447
15:00+32sse672824 0.0 10102178
18:00+31se563260 0.0 10091281
21:00+24ese4104656 0.0 1008161
7 august, sat
sat700:00+24se41339100 0.0 1008244
03:00+22sse384381 0.0 1008149
06:00+20se3468100 1.4 100959
09:00+20se477699 1.7 1008149
12:00+28se8104299 0.4 1008662
15:00+29ene3440100 0.9 1008706
18:00+31ene243497 0.0 1006378
21:00+24nw11529 0.0 100740